GFSWCAN_con_lsi_087.txt.gz
Lid_Strength_Index
1 1 1 0 -1 -1 -1 -0 -1 -0 -0 1 2 2 3 3 4 5 8 7 9 12 12 11 10 12 12 13 15 14 15 14 14 17 16 16 16 14 13 13 14 14 16 16 16 16 17 11 12 14 12 11 10 10
0 0 1 1 -0 -0 0 1 1 0 0 1 2 2 3 3 3 4 8 7 6 9 12 9 9 9 10 10 12 12 14 14 13 15 16 16 15 14 13 14 13 14 13 14 14 14 11 11 12 11 11 10 10 10
1 1 0 0 1 0 1 1 1 1 1 2 2 3 2 3 3 4 9 8 8 10 11 12 11 10 8 8 8 12 13 12 13 12 13 14 15 13 14 13 12 12 12 13 13 12 12 11 11 11 10 10 9 9
1 1 0 1 1 1 1 0 0 0 0 1 2 2 2 3 3 6 8 8 10 12 15 14 10 11 9 9 9 9 10 11 11 11 12 14 15 12 13 12 13 11 12 13 13 12 12 12 12 11 10 9 9 10
3 0 1 0 0 1 1 1 0 0 1 1 1 2 2 3 3 7 9 9 9 12 16 15 12 11 10 9 10 9 9 11 12 12 14 15 13 12 13 14 15 12 11 13 12 11 11 11 12 11 11 10 10 11
3 3 1 1 1 1 1 1 1 1 1 2 2 2 2 3 4 7 10 9 8 9 14 17 12 13 12 11 11 11 10 12 12 13 14 13 12 12 15 16 12 11 10 10 10 11 11 11 11 10 10 9 10 11
4 3 2 1 1 1 1 1 1 1 2 2 2 2 3 4 6 10 11 10 7 9 13 16 16 13 12 12 13 13 12 13 13 13 14 13 12 11 16 14 11 10 9 9 10 11 11 11 11 11 10 10 9 11
3 3 3 1 1 1 2 2 2 2 2 2 3 3 3 4 6 9 7 6 7 10 11 17 16 14 13 15 15 13 14 14 14 13 13 14 13 13 16 11 9 8 7 7 8 11 10 11 11 12 11 11 12 12
3 4 3 1 1 1 1 2 2 2 2 3 3 3 5 7 9 9 6 6 8 11 16 15 17 19 14 15 14 14 14 16 14 14 14 13 14 16 12 11 10 9 9 8 11 11 12 11 12 12 12 12 12 12
4 4 4 3 1 1 2 2 2 2 3 3 5 8 11 8 5 6 8 10 11 11 12 15 14 17 14 16 16 15 14 17 14 13 13 15 14 10 9 9 9 9 9 10 11 12 13 13 13 13 12 12 11 12
3 5 4 4 2 2 2 2 2 3 4 7 10 12 8 5 9 11 14 14 14 15 13 13 13 15 13 15 15 12 12 12 14 14 15 15 16 11 8 8 7 7 9 9 9 9 10 11 12 13 13 12 12 12
3 4 4 4 2 2 2 3 4 5 7 9 9 7 8 11 13 15 16 15 16 17 15 14 13 14 14 13 14 13 14 13 15 14 15 16 13 11 10 9 8 7 7 7 10 10 11 12 11 12 12 12 12 13
2 4 4 5 4 2 3 3 4 6 6 8 10 12 13 14 18 19 20 17 18 15 14 14 14 12 14 13 14 12 14 14 14 18 16 14 10 10 10 10 10 10 9 8 11 11 12 12 12 12 12 12 13 13
2 4 5 5 4 3 4 4 6 6 9 13 15 18 16 18 17 19 18 16 14 15 14 13 15 14 12 13 12 14 13 14 19 19 15 12 10 10 10 10 12 11 11 12 12 12 13 12 12 12 12 12 13 13
1 4 5 4 4 4 4 5 5 7 11 15 15 18 18 17 17 16 14 14 15 12 13 15 14 13 14 15 13 13 15 16 17 15 13 10 10 10 11 12 13 13 13 13 13 13 13 12 12 13 13 13 13 13
2 4 6 5 4 4 5 5 6 10 12 14 15 18 17 17 19 18 16 15 14 12 13 13 14 13 14 13 14 14 15 18 15 14 12 10 10 11 12 13 13 14 14 14 13 13 13 12 13 13 13 13 13 14
2 7 5 5 4 5 5 7 11 14 14 16 17 16 16 16 16 16 14 14 11 12 16 13 15 15 13 14 15 14 16 14 13 12 11 11 12 12 12 13 13 14 14 14 13 13 13 13 12 13 14 15 14 14
5 6 6 6 4 5 8 11 14 14 16 15 17 17 16 16 15 14 15 13 12 13 13 15 13 15 15 16 17 14 14 13 12 11 11 11 11 12 12 13 13 14 14 14 13 13 12 13 13 14 14 14 14 15
5 6 6 4 7 11 14 14 12 16 15 15 15 14 15 15 13 12 12 11 13 13 13 18 17 15 16 14 14 13 13 12 11 10 11 11 11 12 13 13 14 14 14 14 13 13 13 13 13 14 14 14 15 15
4 4 5 5 7 12 14 15 11 14 16 15 14 15 14 14 12 13 12 13 13 14 17 19 16 14 13 12 12 12 11 10 10 10 10 11 11 12 13 13 14 14 14 14 13 12 14 14 14 14 14 14 15 15
4 5 4 6 11 12 13 14 14 14 15 16 14 14 15 13 14 14 14 14 15 17 16 15 14 12 11 11 11 10 10 10 10 9 10 11 11 12 13 14 14 14 13 13 13 13 13 14 14 14 13 15 15 14
4 5 7 9 12 12 13 12 13 13 15 15 14 14 15 15 15 14 14 15 16 14 14 14 13 12 11 11 10 10 9 10 10 9 8 10 12 12 13 14 14 14 14 13 13 13 14 14 14 14 15 15 15 14
5 7 11 11 13 13 14 12 15 15 16 15 14 15 16 15 14 12 15 15 15 14 13 12 12 11 11 11 11 11 10 10 10 10 10 11 11 11 12 13 12 13 14 14 13 13 14 13 13 15 14 15 15 14
7 11 12 13 13 16 13 15 14 14 15 16 16 17 16 16 14 15 17 16 15 14 13 13 12 13 13 13 12 11 10 11 11 10 10 11 13 12 12 13 12 12 12 13 13 13 13 14 13 15 15 15 14 14
12 13 13 15 13 15 16 16 16 16 16 17 17 17 16 14 15 17 17 15 15 14 13 12 12 12 12 11 11 11 10 10 11 10 10 10 12 13 13 13 13 12 12 13 13 13 14 13 15 15 15 15 15 15
16 14 16 15 16 16 16 17 17 16 16 16 16 15 14 15 16 18 16 13 13 12 12 12 12 12 12 11 11 12 10 10 10 11 10 10 11 12 13 14 14 14 11 11 12 13 14 14 15 15 15 14 13 15
18 16 15 14 14 14 15 14 13 14 16 17 15 15 15 16 16 15 13 12 12 12 11 10 10 11 11 10 10 9 10 9 10 9 9 10 9 10 11 12 13 12 11 11 12 12 14 14 15 15 15 14 14 14
14 14 15 15 15 13 14 14 14 15 15 14 13 15 15 15 15 12 12 12 10 11 11 10 10 9 10 10 9 10 11 11 11 11 11 11 11 11 11 11 11 10 11 11 12 12 13 13 14 15 15 15 15 14
14 14 13 15 14 14 14 14 14 13 12 11 13 13 13 12 12 12 12 14 12 12 12 12 12 11 11 10 10 10 10 10 12 13 13 13 13 12 12 11 11 10 11 11 10 11 13 13 14 14 14 15 15 14
15 13 14 15 16 16 14 13 13 11 11 10 11 12 12 13 14 16 14 13 12 12 11 11 12 10 11 11 11 12 10 9 9 9 10 10 10 10 10 11 11 11 11 11 12 12 11 12 13 14 15 16 15 15
13 13 14 15 17 15 14 13 12 11 11 12 12 12 13 13 12 13 13 14 15 12 11 11 11 10 10 10 10 10 11 9 9 8 8 8 8 9 10 10 11 11 11 12 12 13 13 14 15 15 16 16 15 15
14 14 14 16 14 12 13 12 12 12 12 12 14 13 13 12 13 12 12 12 12 12 9 9 9 9 8 8 8 7 7 8 8 8 8 8 8 9 10 10 11 11 12 12 12 13 14 15 15 15 16 16 16 16
14 12 12 12 12 12 12 13 13 12 13 13 14 13 12 12 12 10 12 10 9 8 8 7 6 6 7 7 7 6 6 7 6 6 6 6 7 9 10 10 11 11 12 12 13 14 15 15 15 15 15 16 16 16

GFSWCAN_con_lsi_090.txt.gz
Lid_Strength_Index
1 0 1 1 1 1 1 1 0 0 0 0 -0 0 1 1 2 3 4 4 6 9 9 9 9 10 11 11 14 11 12 11 10 13 13 12 12 11 11 9 10 10 11 11 12 13 14 9 10 12 10 8 8 8
2 1 0 1 1 1 1 0 0 -0 -1 -0 -0 0 1 1 2 3 5 4 4 7 8 7 7 7 8 8 10 10 11 12 9 11 12 11 11 10 11 12 9 11 9 10 10 10 8 8 9 9 9 8 7 7
3 3 1 1 1 1 1 1 0 0 -0 -0 -0 -0 0 1 2 3 5 5 5 7 8 8 9 7 6 7 6 11 10 10 10 9 9 10 12 9 11 10 9 8 8 9 9 9 8 8 8 8 8 8 7 7
3 4 0 0 1 1 1 1 1 0 0 -0 0 0 1 2 3 4 5 4 5 7 11 11 8 9 8 7 7 7 8 9 9 7 9 10 11 9 10 10 10 8 8 9 8 7 7 7 8 8 8 8 8 8
3 3 3 1 1 1 0 0 1 1 0 -0 0 1 1 2 2 4 4 4 4 8 12 11 9 9 9 8 8 8 8 9 9 10 11 11 9 10 9 10 11 8 8 9 8 7 7 7 7 8 8 8 8 8
3 4 3 3 1 1 1 1 1 1 1 1 1 1 2 2 4 5 8 5 4 5 9 13 10 11 9 9 9 8 8 8 9 10 10 10 8 9 11 12 9 7 6 6 6 6 6 6 7 7 8 8 8 8
3 3 3 3 2 1 1 1 1 1 0 0 1 2 2 3 4 8 9 6 4 5 10 13 13 10 10 10 10 10 8 9 9 10 11 10 10 9 10 12 9 7 6 6 6 6 7 6 7 7 8 8 8 8
3 4 3 3 3 1 1 1 1 1 0 1 2 2 3 3 5 8 6 5 4 7 9 13 14 13 10 11 11 10 11 10 10 10 10 11 10 10 12 9 8 7 7 7 7 5 5 6 7 8 8 9 9 9
3 3 2 3 3 3 1 1 1 1 1 1 2 3 4 6 9 8 5 5 5 7 13 13 15 15 11 11 11 11 10 12 10 12 11 10 11 12 9 8 7 7 7 7 6 6 6 7 7 8 9 9 9 9
1 3 3 2 3 4 1 1 1 1 2 2 3 7 10 8 5 5 7 9 9 9 11 14 12 14 11 11 11 11 10 11 14 11 10 12 11 8 7 7 6 6 6 6 7 8 8 8 8 8 9 9 9 9
0 2 3 3 3 3 1 1 2 2 3 5 10 12 7 5 8 9 12 13 12 14 12 12 12 13 11 12 11 10 12 12 15 12 12 12 12 9 7 7 6 5 5 5 5 5 5 5 7 8 9 9 9 8
0 2 3 4 4 3 3 2 3 4 6 9 8 7 8 10 12 14 14 13 14 15 13 13 13 12 11 9 10 11 12 12 16 12 13 14 9 7 7 7 7 7 7 6 5 6 6 6 6 7 9 9 9 8
0 1 4 4 3 3 3 3 3 5 5 6 9 12 13 14 16 16 18 17 17 14 13 13 14 12 11 9 10 11 15 14 11 14 14 11 7 7 7 6 6 6 7 7 5 5 5 6 7 8 9 9 9 9
0 1 4 4 4 4 3 4 5 5 8 13 15 16 14 16 15 14 15 14 13 13 13 12 13 13 11 12 11 14 13 13 15 16 14 9 7 7 7 7 9 9 8 7 7 5 6 7 9 9 9 9 9 10
0 1 3 4 6 5 4 5 5 6 11 14 13 16 16 13 13 13 12 13 12 11 12 12 12 11 12 13 13 13 15 16 15 12 9 7 7 7 8 8 9 9 9 8 7 7 7 9 9 10 9 9 9 10
0 1 4 4 5 4 4 5 6 10 11 13 13 15 14 14 16 13 13 13 11 11 11 11 13 14 14 13 15 15 15 15 12 10 8 7 7 8 9 9 10 10 10 9 9 9 10 10 10 10 9 9 10 11
0 3 2 4 5 4 4 6 11 14 14 15 15 14 13 13 14 14 13 12 10 12 13 12 15 15 12 14 15 13 13 10 9 8 7 8 8 8 9 9 10 11 11 11 10 10 10 10 9 10 11 11 11 11
3 2 3 4 5 4 7 11 14 14 15 15 15 14 13 12 13 13 12 11 11 12 12 13 11 14 15 15 14 11 10 9 8 7 7 8 8 9 9 10 11 11 11 11 10 10 10 10 10 10 11 11 11 12
2 2 4 4 5 11 13 13 13 14 14 14 13 13 12 13 11 11 11 10 10 10 11 12 14 14 13 11 10 10 9 8 8 7 7 8 9 9 10 10 11 11 11 10 10 10 9 9 10 10 11 11 11 11
1 1 4 5 6 12 13 14 13 13 14 14 13 14 13 13 12 11 11 11 11 11 13 14 12 11 10 9 9 8 8 7 7 8 7 8 8 10 10 11 11 11 11 11 10 10 10 11 10 11 11 11 12 12
2 3 3 5 10 12 12 13 13 13 13 13 13 12 14 12 13 12 13 11 12 12 13 12 11 9 9 8 8 8 7 7 7 7 7 7 9 9 10 11 11 11 11 11 10 10 10 10 11 11 11 11 11 11
3 3 6 7 11 11 12 11 12 12 13 13 13 13 14 14 14 13 12 12 12 11 11 11 10 9 9 9 9 8 7 7 7 7 7 7 8 9 11 11 11 11 11 10 10 10 10 10 10 10 11 11 11 12
3 6 10 11 11 11 12 10 13 13 15 14 13 14 14 14 13 12 14 12 12 10 11 10 9 9 8 8 8 8 8 8 8 7 7 7 7 8 9 10 10 11 11 10 9 10 10 10 10 11 11 12 12 12
4 9 11 12 11 13 11 12 12 13 13 14 15 16 15 15 14 14 15 14 13 12 11 10 10 10 10 10 9 8 8 8 8 7 7 7 7 8 8 10 10 10 10 10 10 10 10 10 11 11 12 12 12 12
10 11 10 13 11 12 13 13 14 14 15 15 16 16 16 14 16 16 16 14 13 13 11 10 10 9 10 9 9 8 8 8 8 9 7 7 7 8 9 10 10 10 10 10 11 11 11 11 11 12 12 12 12 12
13 12 12 12 13 13 13 15 14 14 14 15 15 15 14 14 15 16 15 13 12 11 11 10 10 10 10 9 9 10 9 8 8 9 8 7 7 7 9 10 11 11 10 9 10 10 11 11 11 12 12 12 12 12
13 14 12 12 12 12 13 12 12 13 15 16 15 15 15 16 16 14 12 11 10 10 9 9 9 9 9 9 8 8 8 8 8 8 7 7 7 6 7 8 9 9 9 9 9 10 11 11 11 12 12 12 12 12
12 12 14 13 13 11 13 13 14 14 15 13 14 16 16 15 15 12 11 10 9 9 9 9 8 8 8 8 8 8 9 8 9 9 9 9 8 8 7 7 7 8 8 9 9 9 10 10 11 11 12 12 12 12
13 11 11 13 12 12 13 13 14 13 12 12 14 15 14 12 11 10 11 11 10 10 10 11 10 9 9 9 9 8 9 9 10 11 10 9 9 9 8 8 7 7 8 9 9 9 10 10 11 11 11 12 12 12
13 12 13 13 15 15 14 13 13 12 12 12 12 12 12 11 11 12 11 11 10 10 9 9 10 10 10 10 10 10 9 8 8 8 9 9 8 7 8 8 8 8 8 9 10 10 9 10 10 11 12 13 13 13
12 12 14 15 16 15 14 12 11 11 12 12 11 11 11 11 11 12 11 11 10 10 10 10 10 9 9 9 9 10 10 9 8 7 7 6 7 8 8 7 7 8 8 8 10 10 11 12 12 13 13 13 13 13
13 14 14 15 14 13 12 12 12 12 12 11 12 12 12 11 12 11 11 11 11 10 9 9 9 9 8 7 7 7 7 6 8 7 7 7 7 7 7 7 7 8 8 8 10 11 11 12 13 13 13 13 14 14
13 13 13 13 13 13 13 13 13 13 13 13 13 12 12 11 12 10 11 9 9 8 8 8 7 7 7 7 7 7 7 6 6 6 6 6 6 7 7 7 7 8 8 9 10 11 12 12 13 13 13 14 14 14

GFSWCAN_con_lsi_096.txt.gz
Lid_Strength_Index
2 2 3 3 3 1 0 0 0 1 1 1 1 2 2 2 2 4 6 4 6 9 7 7 7 9 9 10 13 11 12 12 13 14 14 13 14 12 13 12 12 12 14 14 13 16 17 8 9 12 11 10 9 9
2 2 2 3 4 4 3 0 0 1 1 2 2 2 2 2 2 3 6 4 4 6 7 5 5 6 7 7 9 10 12 12 11 12 13 13 13 12 12 15 10 13 11 12 11 12 8 7 8 8 8 9 9 9
2 3 3 3 4 4 3 1 0 1 1 2 2 3 2 2 3 4 5 5 6 8 8 8 7 6 5 6 6 11 11 10 11 10 12 13 14 13 15 13 13 10 9 11 10 8 8 7 7 7 7 8 8 8
1 2 2 3 3 3 3 3 2 1 1 2 2 2 2 2 3 3 5 5 6 8 11 9 5 7 5 5 6 7 8 8 9 10 12 13 13 11 14 13 13 11 10 10 10 9 8 7 7 7 7 7 8 7
0 1 2 3 3 2 2 2 3 1 1 2 2 2 2 3 3 4 4 4 4 7 11 10 8 7 6 7 7 7 8 9 10 12 13 14 12 12 12 13 14 11 12 13 12 9 9 8 7 6 7 7 7 8
0 0 2 2 3 3 3 2 3 1 1 2 2 2 2 3 3 5 8 4 3 4 9 11 9 9 8 7 7 8 8 9 10 11 12 12 10 12 15 15 12 10 9 9 10 9 8 8 7 7 7 7 7 7
0 -0 0 0 3 2 3 3 3 1 1 2 2 2 3 3 4 7 8 6 3 4 9 12 13 10 8 8 9 9 8 9 10 11 12 12 12 12 14 16 11 10 9 9 8 9 10 8 9 7 7 7 6 6
-0 -0 -0 0 2 3 2 3 3 3 1 1 2 3 3 3 5 6 5 3 3 7 8 13 13 12 9 11 11 9 10 10 10 12 12 13 12 12 15 12 10 9 9 9 8 8 8 8 8 8 7 7 8 8
-0 -0 -0 -0 -0 1 2 2 3 3 1 2 2 3 4 5 8 7 4 4 4 7 12 12 14 15 9 10 10 10 10 13 11 13 13 13 14 16 12 11 10 10 9 9 8 8 8 8 8 8 8 8 9 8
-0 -0 -0 -0 -0 0 2 2 2 4 2 3 4 6 9 8 5 4 7 8 8 8 9 13 11 13 10 10 11 11 11 13 15 13 12 14 15 11 10 9 8 8 8 8 9 9 8 8 8 8 8 8 8 8
-0 -0 -0 -0 -0 -0 1 2 2 3 3 5 9 10 7 5 7 9 11 12 12 14 12 12 11 12 9 11 12 10 12 12 16 14 14 15 15 11 9 9 8 8 8 8 7 7 7 7 7 7 8 7 8 8
-0 0 0 0 -0 -0 1 3 3 3 4 7 8 6 7 10 12 14 15 13 14 15 12 13 11 10 9 8 10 11 13 13 17 12 15 16 12 9 8 8 7 7 7 7 7 7 7 7 7 7 7 7 8 8
0 0 0 0 0 -0 1 3 3 3 5 6 9 11 12 13 16 16 18 16 16 13 13 11 12 10 9 9 11 12 14 15 13 16 16 14 10 9 8 8 7 7 8 7 7 7 7 7 6 6 7 7 7 8
0 0 0 0 0 0 1 1 2 4 7 13 14 16 14 16 15 14 14 14 12 12 11 11 11 11 11 11 11 14 13 14 17 18 17 12 10 9 8 7 8 8 8 8 8 7 7 7 6 6 7 7 8 8
0 0 0 0 0 1 2 2 3 4 9 14 13 15 15 11 11 11 10 11 11 10 11 11 11 11 13 13 13 14 16 18 17 16 13 10 9 8 8 8 9 9 9 10 9 9 8 7 6 7 7 7 8 8
0 0 1 0 1 2 3 3 4 6 9 11 11 12 11 12 12 11 11 12 10 10 10 10 13 14 15 14 15 17 17 18 15 13 10 9 9 9 9 9 9 10 10 10 8 8 7 7 7 7 7 8 8 9
0 2 0 0 1 3 3 4 5 11 11 13 12 9 10 11 11 12 11 11 9 11 13 12 15 16 13 16 17 15 16 13 11 10 9 8 9 9 9 9 10 10 10 8 7 7 7 6 7 8 9 9 9 10
2 1 0 0 2 3 5 10 12 12 13 13 11 10 9 10 11 11 11 10 10 11 11 13 11 14 16 17 16 13 12 10 9 9 8 8 8 9 9 10 10 10 10 9 8 8 7 8 8 9 9 11 11 11
1 1 0 1 4 9 11 11 11 12 12 9 9 9 10 10 10 9 10 10 9 8 10 12 14 14 14 13 12 11 11 10 10 9 8 9 8 9 9 10 10 11 10 10 9 9 8 8 9 10 11 11 12 12
0 0 1 1 4 9 11 12 11 11 12 11 9 11 11 11 10 10 10 10 10 10 13 14 13 12 11 11 10 10 9 9 9 10 10 9 9 9 9 10 10 10 10 10 9 9 10 10 10 10 10 11 12 13
1 1 2 5 8 8 10 11 11 10 11 11 10 11 12 11 11 12 12 10 11 13 13 11 11 10 8 9 8 8 8 8 9 9 9 10 9 9 9 10 10 10 11 11 11 10 10 11 10 10 10 11 11 12
3 3 6 6 9 9 10 10 10 10 11 11 11 11 12 13 12 12 11 12 13 12 11 11 10 9 9 9 8 8 8 8 8 8 8 8 10 10 10 9 10 11 11 11 10 10 10 10 10 10 11 11 11 12
3 4 7 8 9 9 11 9 10 10 12 12 11 13 13 13 12 10 14 12 12 10 10 10 9 9 9 8 8 9 9 9 9 9 9 8 8 8 9 9 9 10 11 11 10 10 10 9 9 10 11 11 12 12
3 6 8 9 9 11 10 11 10 10 11 12 12 14 13 13 12 14 15 13 11 10 10 10 9 9 10 9 10 9 9 9 10 9 9 9 10 9 9 9 8 8 9 10 10 10 10 10 10 11 12 12 12 13
9 10 9 10 9 10 11 11 11 11 12 12 14 15 14 13 15 15 15 14 12 11 10 10 9 9 10 10 9 9 9 9 10 11 10 9 9 9 9 9 9 8 8 10 10 10 11 10 11 11 12 12 13 13
11 10 10 10 10 10 10 12 12 12 12 13 14 13 13 14 15 16 15 12 11 11 10 10 10 10 10 9 9 9 9 8 9 10 10 9 8 9 10 11 11 10 8 8 9 10 10 10 11 11 12 11 10 13
12 12 9 6 8 8 9 9 9 11 13 15 14 14 14 16 17 14 11 10 11 10 9 9 9 9 9 9 8 8 8 8 9 9 9 9 9 8 8 9 10 9 8 8 8 9 10 10 11 11 12 11 11 12
9 9 10 9 9 8 10 10 11 12 13 12 13 15 15 16 15 12 11 10 9 9 9 8 8 8 8 8 8 8 9 9 10 10 10 10 9 9 9 8 7 7 8 8 8 8 8 9 10 11 11 11 12 12
9 8 7 11 9 9 9 10 11 11 11 12 13 14 14 13 13 13 12 9 8 9 10 10 9 8 9 9 9 9 10 10 11 13 13 13 12 11 10 9 9 9 9 8 7 7 8 8 9 10 10 11 11 12
9 6 9 9 10 11 10 10 10 9 10 10 12 13 13 13 13 13 11 10 10 9 9 9 9 9 10 10 11 11 10 9 10 10 12 11 11 10 9 9 9 9 9 9 9 8 6 7 7 9 10 11 11 12
6 7 9 10 12 11 9 9 9 10 11 12 12 12 13 13 13 12 11 10 9 9 9 10 10 9 10 10 11 11 11 10 9 9 9 9 9 9 9 9 8 9 9 9 9 9 9 9 10 10 11 11 11 11
8 9 11 12 11 9 9 10 11 12 12 12 13 12 13 12 13 13 12 10 10 10 9 9 10 10 9 9 9 9 9 9 9 9 9 9 9 9 9 9 8 8 9 9 9 9 10 10 10 10 11 11 11 11
9 10 10 10 11 10 11 11 12 13 13 13 13 13 13 13 14 12 12 11 10 10 9 9 9 9 9 9 9 9 9 9 9 8 8 8 8 8 9 9 9 9 9 9 9 10 10 11 11 11 11 11 11 11

GFSWCAN_con_lsi_099.txt.gz
Lid_Strength_Index
1 2 3 3 2 3 4 3 0 0 1 1 1 1 1 1 2 4 7 6 8 11 10 9 9 12 12 13 15 14 14 14 14 17 17 16 17 15 16 15 15 15 17 17 16 18 17 9 10 13 11 11 10 10
0 1 1 2 2 3 3 3 1 -0 1 1 1 2 2 2 2 3 8 5 5 8 10 6 8 8 9 10 11 12 14 14 13 14 15 15 16 16 15 18 14 16 14 15 14 13 10 10 10 9 8 9 10 10
0 0 0 0 3 3 3 3 3 1 1 1 1 1 2 2 2 4 7 5 7 10 11 9 9 8 7 8 8 13 14 12 13 12 14 15 17 15 18 17 16 14 12 13 13 12 11 10 9 9 8 9 8 8
0 0 0 -0 1 2 3 3 3 3 1 1 1 1 2 2 3 4 7 6 8 10 13 12 8 9 8 8 8 8 10 9 10 11 14 15 16 14 17 16 16 14 14 13 13 11 11 10 10 9 8 7 8 8
0 -0 -1 -0 -0 1 2 3 3 3 3 1 1 1 2 3 3 5 6 6 6 10 14 13 10 9 9 9 9 8 9 10 12 14 15 16 14 14 15 15 15 14 14 15 14 11 12 11 9 8 9 9 8 8
-1 -1 -0 -0 -0 2 2 2 2 2 2 3 1 1 2 3 3 6 10 7 5 6 11 14 11 11 10 10 10 10 9 10 12 13 14 13 12 14 18 18 13 12 11 11 12 12 11 11 10 8 9 9 8 8
-1 -0 -0 -0 -0 1 1 2 2 2 2 4 1 2 3 3 5 9 11 8 4 6 11 14 15 12 11 11 11 11 10 11 12 14 14 14 13 13 18 16 13 12 11 11 11 11 12 11 11 9 8 8 7 8
-1 -0 -0 -0 -0 -0 0 2 2 2 3 3 1 2 3 3 5 8 7 5 4 8 9 15 16 14 11 13 14 11 12 12 12 14 14 15 14 14 17 13 11 10 10 10 10 10 10 10 10 9 8 9 9 9
-0 -0 -0 -0 -0 -0 -0 1 2 2 2 2 2 3 4 6 8 9 4 5 6 9 13 15 17 18 12 13 12 12 13 16 13 15 15 15 16 18 14 13 12 11 12 11 11 10 11 11 10 10 9 9 10 10
-0 -0 -0 -0 -0 -0 -0 0 2 2 2 2 3 6 9 7 4 5 7 9 10 10 11 15 13 15 12 13 13 13 13 17 19 15 14 16 16 12 12 11 11 11 11 11 11 11 11 11 10 10 10 9 9 9
-0 -0 -0 -0 -0 -0 -0 -0 1 2 3 4 7 9 6 5 8 10 12 13 13 14 12 13 13 14 11 14 14 12 15 14 18 16 16 18 18 13 11 11 10 10 9 9 9 9 10 9 9 9 9 9 9 9
-0 -0 -0 -0 -0 -0 -0 -0 1 3 4 6 7 5 7 9 12 14 15 13 14 15 12 14 13 12 11 9 12 13 15 17 19 14 16 19 15 12 12 11 11 10 9 9 9 9 9 9 9 9 9 9 9 8
-0 -0 -0 -0 -0 -0 -0 -0 2 2 3 5 7 10 11 13 16 16 18 16 15 13 13 13 13 12 11 10 13 15 17 18 14 19 18 16 13 12 12 10 10 9 9 9 9 9 8 9 8 8 8 8 9 9
0 0 0 0 -0 0 -0 0 2 3 5 11 14 16 14 16 15 15 14 14 13 13 12 11 12 12 11 14 14 17 15 16 20 20 18 15 13 12 11 10 10 10 10 10 10 9 9 8 8 8 7 8 8 9
0 0 0 0 0 0 0 0 0 2 9 12 13 14 14 14 14 13 12 12 12 11 11 12 13 12 16 15 16 16 18 21 18 17 17 14 12 12 11 11 11 11 11 11 10 10 10 9 9 9 8 8 8 9
0 0 1 0 0 0 0 1 1 4 9 12 11 13 13 13 13 12 12 13 11 11 10 12 14 16 16 16 18 18 19 18 16 15 13 12 12 12 11 11 12 12 11 11 11 10 9 9 9 9 9 8 8 8
0 3 0 0 0 0 1 4 6 10 12 12 12 10 12 12 12 12 11 12 10 11 14 14 17 17 16 20 19 17 17 14 14 13 13 12 12 11 11 12 11 11 11 11 10 9 9 8 8 9 10 9 8 9
3 1 0 0 0 1 7 9 11 11 13 12 12 11 10 10 11 11 11 10 11 11 12 14 14 17 19 19 17 15 14 13 13 12 11 11 11 11 11 12 11 12 11 11 10 9 8 8 9 9 10 9 10 11
1 1 0 0 3 7 10 11 10 11 11 11 10 10 10 10 10 9 10 10 9 9 10 14 17 18 16 14 14 14 13 13 13 12 11 11 11 11 11 11 11 12 12 11 10 10 10 9 9 10 10 11 12 12
0 0 0 1 3 8 10 11 10 10 10 11 9 10 10 10 10 10 10 10 10 11 13 15 15 13 13 12 11 11 11 11 11 12 12 12 11 11 11 11 12 12 11 10 9 9 10 11 11 11 11 12 12 12
1 1 1 4 7 8 9 11 10 10 10 10 8 9 10 9 10 11 11 9 11 13 16 13 12 11 10 11 10 11 11 10 10 11 11 12 11 11 11 11 11 11 11 11 11 11 11 11 11 11 11 12 12 12
3 2 6 5 9 9 10 9 10 9 10 10 10 10 12 12 12 11 10 12 14 12 12 11 11 11 11 10 10 10 10 10 10 9 9 10 12 12 12 11 11 12 12 12 11 12 11 11 11 11 12 12 11 12
3 5 8 8 9 10 11 8 10 10 11 12 11 13 13 13 11 10 14 13 13 11 10 10 10 10 10 10 10 11 10 9 10 10 10 11 11 11 11 11 10 11 12 12 11 11 11 10 10 11 11 12 12 12
4 7 9 9 9 12 10 12 10 10 10 11 12 14 13 13 11 14 15 15 12 11 11 10 9 11 11 11 11 11 10 9 10 11 10 10 11 11 10 10 10 10 10 11 11 11 11 11 10 11 12 12 12 13
10 10 10 11 11 12 16 12 11 12 13 11 14 14 13 12 14 15 16 15 12 11 10 9 9 10 10 10 10 10 10 9 10 11 11 10 11 11 11 10 10 10 9 11 11 11 11 11 12 12 12 12 13 13
13 11 11 16 11 12 12 14 12 13 13 13 13 14 14 15 15 16 16 13 11 11 10 10 10 10 10 10 11 11 11 10 10 10 11 10 10 10 11 11 11 11 9 9 10 11 11 11 12 12 13 12 11 13
14 13 10 10 10 10 11 10 10 12 14 15 15 16 15 17 17 15 13 10 10 9 9 8 8 9 9 9 9 9 10 10 10 10 10 9 9 9 9 11 11 10 9 9 9 9 10 11 12 12 12 12 12 12
14 10 11 11 10 10 11 11 11 11 13 13 13 16 17 17 16 13 12 10 9 8 9 8 8 8 8 9 9 9 10 11 11 11 12 12 11 10 10 10 10 8 8 8 8 9 9 9 10 11 12 12 12 12
12 10 10 14 12 11 11 10 11 11 11 12 13 14 14 13 13 12 12 9 8 9 9 9 9 10 10 10 9 9 10 10 12 14 13 13 13 12 11 10 9 9 9 9 7 8 9 9 9 10 10 11 11 12
12 10 11 11 13 12 11 11 11 10 11 11 12 13 14 14 15 14 12 10 10 10 9 9 9 9 10 10 11 11 10 9 9 10 11 12 11 11 11 10 10 10 10 9 9 9 7 8 8 10 11 11 12 12
10 10 12 12 15 13 11 11 10 11 11 12 12 13 13 13 13 12 10 10 10 10 10 10 10 9 10 10 11 11 11 10 9 9 10 11 11 10 10 10 10 10 10 10 10 9 9 10 11 11 12 12 12 11
10 11 12 14 14 12 11 11 12 12 12 12 14 13 13 13 14 14 12 11 10 11 10 10 10 10 9 9 9 9 9 10 11 10 11 11 10 11 10 10 10 10 10 10 10 10 10 11 11 12 12 12 12 12
13 11 11 12 14 12 11 11 12 14 14 15 14 13 13 13 14 13 13 11 10 10 10 9 9 9 9 9 10 10 9 10 9 9 9 9 9 10 10 10 10 10 11 11 11 11 11 12 12 12 12 12 12 12

GFSWCAN_con_lsi_105.txt.gz
Lid_Strength_Index
-1 -1 -1 -1 -0 1 2 3 4 4 3 3 2 0 0 1 1 3 7 8 9 12 13 10 9 12 13 13 15 14 14 15 16 18 18 18 19 16 16 16 16 17 19 20 19 20 19 12 13 15 13 12 11 10
-1 -1 -1 -1 -0 0 1 2 3 3 3 3 3 1 1 1 2 2 9 6 8 11 13 8 8 9 10 10 12 14 13 15 14 17 17 17 17 17 16 18 15 17 15 16 16 16 12 12 12 11 11 11 11 10
-1 -1 -1 -1 -1 -0 0 1 3 3 3 2 3 2 1 2 2 3 8 7 8 11 11 10 10 8 8 9 9 13 13 12 13 13 15 17 18 16 18 17 17 15 13 14 15 13 13 12 12 11 11 11 10 10
-1 -1 -1 -1 -1 -0 1 0 2 3 3 2 3 3 1 2 3 3 7 8 8 11 15 14 8 9 7 7 9 10 10 11 12 14 16 17 19 16 18 16 17 15 15 15 15 14 13 12 11 11 11 11 10 10
-1 -1 -1 -1 -1 -0 1 1 -0 1 3 3 2 2 2 2 3 3 7 7 7 12 16 15 10 8 8 7 8 9 10 12 14 15 16 17 16 16 17 17 16 14 15 16 16 13 14 13 12 11 11 10 10 10
-1 -1 -1 -1 -1 -1 0 1 0 0 3 3 3 2 2 2 3 6 9 7 8 9 13 17 12 11 10 9 9 10 11 12 13 15 16 16 14 16 20 19 14 13 11 11 13 13 12 12 13 11 11 10 10 10
-1 -1 -1 -1 -1 -1 -0 0 -0 0 1 3 4 3 2 2 4 7 10 8 5 7 12 16 15 13 11 11 12 12 11 12 13 14 16 16 15 15 20 18 14 13 13 12 11 14 14 13 12 12 11 11 9 10
-1 -1 -1 -1 -1 -1 -1 -0 -0 -0 0 3 3 3 3 3 4 7 7 5 5 9 10 16 17 15 12 15 15 12 14 13 14 14 15 16 15 16 19 13 13 12 12 13 13 13 12 13 13 12 11 11 11 11
-0 -1 -1 -1 -1 -1 -1 -0 -0 -0 -0 2 3 3 3 4 8 7 4 5 6 9 15 17 17 19 13 14 14 14 13 16 15 16 16 15 17 19 14 13 13 13 13 13 13 12 13 13 12 12 12 12 11 11
-0 -0 -0 -0 -0 -1 -1 -0 -0 -0 -0 0 2 5 8 6 3 4 7 9 10 11 13 17 15 17 14 15 16 15 14 15 19 16 16 18 19 14 12 12 12 12 12 12 14 14 14 14 13 12 13 11 10 10
-0 -0 -0 -0 -0 -0 -0 -0 -0 -0 -0 2 5 9 8 3 6 10 14 14 13 15 14 15 15 16 14 16 16 14 16 16 19 17 17 19 20 14 11 12 11 11 11 12 11 12 12 12 12 13 13 12 10 10
-0 -0 -0 -0 -0 -0 -0 -0 -0 1 2 3 5 4 5 9 12 14 14 14 14 16 13 15 15 14 14 12 14 15 17 17 19 17 20 19 16 12 12 12 12 12 12 12 11 12 12 12 12 11 11 11 10 10
-0 -0 -0 -0 -0 -0 -0 -0 -0 -0 1 2 5 9 12 12 15 15 16 15 15 14 12 13 14 14 13 12 14 15 17 18 16 19 19 17 13 13 13 13 13 13 12 12 12 12 11 11 11 11 10 10 10 11
-0 -0 -0 -0 -0 -0 -0 -0 -0 0 4 9 11 14 13 15 13 12 13 13 13 12 12 11 13 13 13 14 14 17 16 18 21 20 20 16 14 13 13 13 13 12 12 13 13 12 11 11 11 10 10 10 10 10
0 -0 -0 0 -0 -0 -0 -0 -0 3 7 10 10 13 13 11 13 12 11 11 11 10 11 12 14 14 15 15 15 17 18 20 20 18 16 14 14 14 14 14 13 13 13 13 12 12 11 11 11 10 10 10 10 9
-0 0 1 -0 -0 -0 -0 0 1 4 7 10 10 11 11 12 14 12 11 11 10 10 9 12 14 15 15 15 18 19 20 20 17 16 14 14 14 14 14 13 13 13 13 12 12 11 11 11 11 10 10 10 9 9
0 3 0 0 0 0 0 2 6 9 9 10 12 8 10 11 12 12 10 11 8 10 13 14 17 16 16 18 19 18 18 13 14 14 14 13 13 13 13 13 13 13 13 13 13 12 12 11 11 11 11 10 9 9
2 1 0 0 0 2 6 7 8 9 11 10 10 9 9 11 10 10 10 9 9 10 12 14 14 16 17 19 18 15 16 15 14 14 14 13 13 13 13 13 14 13 13 13 12 12 12 11 12 11 10 9 9 9
1 1 0 0 2 6 9 9 9 10 10 9 9 8 9 10 8 8 8 8 8 9 10 13 14 16 17 16 14 14 15 14 14 14 13 13 12 13 13 13 13 13 13 13 13 13 12 11 11 10 10 10 11 11
0 0 0 0 2 7 9 9 8 8 9 8 8 8 9 10 9 8 8 8 9 10 12 15 15 14 13 12 12 13 13 13 13 14 14 13 13 13 14 13 13 13 13 13 13 12 12 12 11 11 11 11 11 11
1 1 0 3 6 7 8 9 9 8 7 8 8 8 10 8 9 9 9 8 10 12 14 13 13 11 10 11 12 12 13 11 12 12 12 14 14 13 14 13 13 13 13 13 13 13 13 13 12 10 11 11 11 11
2 1 4 4 8 8 9 8 9 8 8 8 8 8 10 11 10 9 8 11 13 11 12 12 11 10 11 11 11 12 12 11 11 11 11 12 14 14 14 13 12 13 13 13 12 13 14 13 12 12 12 12 11 12
2 4 7 7 9 11 11 8 9 8 10 10 9 10 11 11 9 8 11 12 13 12 11 10 9 9 10 11 11 11 11 11 12 11 11 12 13 12 12 12 11 12 13 13 12 13 13 11 11 12 12 12 12 12
3 7 8 9 10 12 10 11 9 9 9 10 10 12 11 11 10 11 13 14 12 11 10 10 10 12 12 11 12 12 11 10 11 12 12 12 13 13 12 12 12 12 11 12 12 12 12 12 11 12 12 13 13 13
9 9 9 13 12 12 16 11 11 11 11 12 12 12 11 10 12 13 15 14 12 10 10 10 10 11 12 11 11 11 10 10 11 12 12 11 13 13 13 13 12 12 11 12 13 12 13 12 13 13 13 13 14 14
11 10 12 11 12 13 12 13 12 11 12 12 13 10 12 12 14 15 14 13 11 10 9 10 10 11 11 10 11 11 10 10 10 11 13 12 11 11 12 13 13 13 11 11 12 12 13 13 13 13 13 12 12 14
13 12 10 11 11 11 12 11 11 12 13 15 12 12 14 17 16 14 13 12 9 8 7 8 9 9 9 9 10 10 10 10 10 10 11 11 11 10 10 11 12 10 10 10 10 11 12 13 13 13 13 13 12 13
9 10 11 10 11 11 12 11 11 12 13 12 12 14 14 13 14 12 12 9 7 6 7 7 7 7 8 9 9 10 11 12 12 11 12 13 13 12 11 11 10 9 9 10 10 10 11 12 13 13 13 13 13 13
11 10 10 15 12 12 12 11 11 11 11 10 12 12 12 11 11 11 11 10 8 7 8 9 9 9 10 10 10 10 11 11 12 14 14 14 14 13 12 11 10 9 9 9 8 9 11 11 12 12 12 13 13 13
12 10 11 11 13 12 11 11 11 11 11 11 11 11 11 12 13 14 11 10 9 8 8 8 8 9 10 10 12 12 10 9 9 10 12 12 11 12 12 11 11 10 10 10 10 10 8 10 9 11 12 13 13 13
10 10 12 13 15 13 12 12 12 11 11 11 12 12 12 13 12 12 11 10 9 9 9 9 9 8 10 10 11 12 12 10 9 9 10 11 12 11 11 11 11 10 10 10 10 10 11 11 12 13 13 13 13 12
11 11 12 14 13 12 12 11 12 12 12 12 14 12 12 12 12 12 11 10 9 9 8 8 9 9 8 8 8 8 8 9 11 10 11 11 11 11 11 11 11 11 11 11 11 11 11 12 13 13 13 13 13 13
13 12 11 12 15 14 12 12 14 15 14 14 14 12 12 12 12 12 12 10 9 8 8 8 7 7 8 8 9 9 8 9 10 9 9 10 10 10 11 11 11 11 11 11 11 11 12 13 13 13 13 13 13 13

GFSWCAN_con_lsi_108.txt.gz
Lid_Strength_Index
-1 -1 -1 -1 -1 -1 1 1 1 2 2 2 2 2 2 1 1 2 6 7 9 14 14 11 10 12 13 13 14 14 14 16 17 18 19 18 18 17 17 17 17 18 20 20 19 20 20 13 14 17 15 14 12 12
-1 -1 -1 -1 -1 -1 -1 -1 -0 0 1 3 3 2 2 1 1 1 6 6 9 11 13 9 9 10 10 10 12 15 14 15 15 17 17 17 17 17 17 18 16 17 15 17 16 16 13 12 13 13 13 13 13 12
-1 -1 -1 -1 -1 -1 -1 -1 -1 -0 1 3 3 2 2 2 1 2 6 7 8 11 11 11 11 9 8 10 10 14 15 13 14 13 15 16 17 16 18 18 17 15 14 15 15 13 13 12 11 12 12 12 12 11
-1 -1 -1 -1 -1 -1 -1 -1 -1 -0 2 2 3 2 2 2 1 2 7 6 6 11 14 14 9 10 8 9 10 11 11 11 12 13 15 16 17 15 17 16 16 15 14 15 15 14 13 12 12 11 11 11 12 11
-1 -1 -1 -1 -1 -1 -1 -1 -1 -0 1 2 3 4 2 2 1 2 4 6 5 9 15 15 11 9 9 9 10 10 10 12 13 14 16 16 16 17 17 17 18 16 16 16 16 13 14 14 12 11 11 12 11 11
-1 -1 -1 -1 -1 -1 -1 -1 -1 0 0 1 1 2 2 2 2 5 8 6 6 9 13 17 12 12 11 10 10 11 11 12 13 14 15 16 15 16 20 20 14 13 13 12 14 14 14 13 12 12 12 11 11 11
-1 -1 -1 -1 -1 -1 -1 -1 -1 -0 1 0 1 1 3 3 3 6 8 6 6 7 12 15 16 13 11 12 12 12 11 11 11 13 15 16 15 16 20 18 14 13 13 13 13 15 14 13 13 12 11 11 10 11
-1 -1 -1 -1 -1 -1 -1 -1 -1 -0 0 -0 1 0 3 3 3 7 6 5 5 9 11 17 18 15 13 14 14 13 13 12 13 14 15 15 16 17 20 13 13 13 13 14 14 13 12 14 13 13 12 11 12 12
-0 -1 -1 -1 -1 -1 -1 -1 -1 -1 -1 0 0 1 4 4 6 6 4 5 6 9 15 17 18 19 13 15 14 13 13 15 14 16 16 15 18 20 15 13 13 13 13 13 13 12 13 14 13 13 13 12 12 12
-0 -0 -0 -1 -1 -1 -1 -0 -0 -0 -0 0 2 4 6 4 4 4 6 9 10 10 13 17 16 17 15 15 16 14 14 15 20 17 16 18 18 14 12 12 12 13 13 13 14 15 15 15 14 13 13 12 11 12
-0 -0 -0 -0 -0 -0 -0 -0 -0 -0 -0 3 5 8 5 2 9 11 14 14 14 15 14 16 16 16 14 16 16 14 16 17 21 18 18 19 21 14 12 12 11 11 11 12 12 11 13 13 13 13 13 12 12 12
-0 -0 -0 -0 -0 -0 -0 -0 -0 1 3 3 4 3 6 9 13 14 15 14 14 16 14 16 16 14 14 13 15 16 17 18 20 18 20 20 16 12 13 12 12 12 12 12 12 12 12 13 12 12 13 13 13 12
-0 -0 -0 -0 -0 -0 -0 -0 -0 -0 1 2 4 10 12 12 15 15 16 15 16 15 14 15 15 14 13 13 15 15 17 18 17 20 19 18 13 13 13 13 14 13 13 13 13 13 12 13 12 12 12 12 12 11
-0 -0 -0 -0 -0 -0 -0 -0 -0 0 3 8 10 13 13 15 13 13 12 13 14 13 13 12 15 14 14 14 15 17 16 18 20 20 19 16 14 13 13 14 14 13 13 13 13 13 13 13 13 12 11 11 11 11
0 0 -0 0 -0 -0 -0 -0 -0 1 5 9 9 12 13 10 11 11 11 12 11 11 11 12 13 14 15 15 15 17 18 19 19 19 17 14 14 14 14 15 14 14 13 13 13 13 13 13 12 12 11 11 11 11
0 0 1 -0 -0 -0 -0 0 1 3 6 9 10 10 10 10 12 11 11 12 10 10 9 12 14 14 15 15 18 18 18 19 17 16 15 15 15 15 15 14 14 14 13 13 13 13 12 12 12 11 11 11 11 10
0 3 0 0 0 -0 -0 3 5 8 9 9 10 8 9 11 11 11 10 10 8 9 12 15 17 16 15 18 19 17 18 15 15 15 15 14 14 14 14 14 13 13 14 14 14 13 13 12 11 11 12 12 11 11
2 2 0 0 0 2 5 6 8 9 10 9 10 9 8 10 10 9 10 8 9 9 12 14 14 16 17 18 17 16 15 13 15 14 14 14 14 14 13 14 14 14 14 14 14 13 13 13 13 13 12 12 11 10
1 1 0 0 2 5 7 8 8 10 10 8 8 7 8 9 8 7 7 7 7 9 11 13 15 16 16 15 14 13 13 14 14 14 14 14 13 13 13 14 14 15 15 14 14 13 13 13 13 12 11 10 11 11
0 0 0 0 1 6 8 9 8 9 10 8 8 8 9 9 7 7 7 7 9 10 12 14 15 14 13 12 12 12 12 13 14 15 14 14 14 14 14 14 14 15 15 14 13 11 13 13 13 12 12 11 12 12
1 1 0 2 5 6 7 9 9 8 8 8 7 7 9 8 9 9 9 7 9 12 13 13 13 12 11 10 11 11 13 12 13 13 13 14 15 14 14 14 15 14 14 14 13 12 13 14 13 12 11 12 11 11
2 0 4 3 7 8 8 7 8 7 7 8 7 7 9 9 9 8 7 9 10 9 12 12 11 11 11 11 11 12 12 12 12 12 11 12 15 15 14 14 14 14 14 14 12 13 14 14 13 12 13 12 11 11
2 3 7 7 8 10 10 8 9 8 10 9 8 10 10 10 9 7 10 9 11 11 11 10 10 9 10 10 12 12 12 12 12 13 12 13 13 13 14 14 13 13 14 14 13 13 13 11 11 12 12 12 12 12
3 6 8 8 12 15 9 10 9 9 9 10 10 11 10 10 9 11 12 12 9 10 10 10 10 11 11 12 12 12 12 12 12 13 13 13 14 15 13 13 13 12 12 12 12 13 12 12 11 12 12 13 13 13
8 9 10 11 12 15 14 11 13 10 11 11 12 11 10 10 11 12 12 13 12 9 10 9 10 10 11 12 11 12 11 11 12 13 13 12 14 14 14 13 13 12 11 12 13 13 13 12 13 13 13 13 14 14
12 10 13 15 11 12 11 12 11 11 11 12 11 10 10 11 13 14 14 12 12 9 9 9 10 11 12 11 12 12 11 11 11 13 13 12 12 12 13 13 14 14 12 11 12 13 13 13 13 13 13 12 12 14
12 12 10 9 10 10 11 10 10 11 13 13 11 12 14 16 15 13 12 11 10 8 7 7 8 9 9 10 10 9 10 10 11 11 11 11 11 11 11 12 12 11 11 11 11 12 13 13 13 13 13 13 13 13
11 10 12 10 11 10 12 11 11 12 13 11 11 14 15 14 12 10 10 9 7 7 7 7 7 7 8 8 9 10 11 11 12 12 12 13 13 12 12 11 10 9 10 10 11 11 12 12 13 13 13 13 14 13
11 10 9 12 11 11 12 11 11 11 11 10 11 12 11 11 10 10 10 9 7 7 8 8 8 9 10 9 9 10 11 11 12 14 14 15 14 13 12 11 10 10 10 10 9 10 11 12 12 12 13 13 14 14
13 9 10 11 12 12 11 11 11 11 11 10 11 11 11 11 13 14 11 9 8 8 7 7 8 9 10 10 11 12 10 9 9 10 12 12 12 12 11 11 11 11 10 10 11 11 9 10 10 13 13 14 14 14
10 10 12 13 15 13 11 11 11 11 11 12 12 11 11 12 11 11 11 9 9 8 8 8 9 9 10 10 11 11 12 10 9 10 10 10 12 11 11 11 11 10 10 10 10 11 11 12 13 13 13 14 13 13
11 11 12 13 13 13 12 12 12 12 12 11 14 12 12 11 11 11 11 10 9 9 7 8 9 9 8 8 8 8 8 9 10 10 10 11 11 11 11 11 11 11 11 11 11 11 12 12 13 13 13 13 13 13
14 12 12 13 15 14 13 13 14 15 14 14 14 12 12 11 11 11 12 10 8 8 8 8 7 7 8 8 8 8 9 9 9 9 9 9 10 10 11 11 11 11 12 11 11 12 12 13 13 13 13 13 13 13

GFSWCAN_con_lsi_114.txt.gz
Lid_Strength_Index
-1 -1 -1 -1 -1 -1 -1 -1 -1 -1 -1 -1 -1 0 2 2 2 2 5 7 8 11 11 9 8 8 9 8 10 10 9 10 10 11 11 13 13 13 13 12 14 14 15 15 14 15 16 9 10 12 9 9 9 8
-1 -1 -1 -1 -1 -1 -1 -1 -1 -1 -1 -1 -1 0 2 3 3 2 6 6 6 8 9 9 8 7 6 6 9 9 8 9 8 10 11 12 13 13 12 14 12 13 11 11 11 11 9 9 8 8 8 8 8 7
-1 -1 -1 -1 -1 -1 -1 -1 -1 -1 -1 -1 -1 -1 0 1 1 3 4 6 7 9 9 10 10 7 6 6 5 9 10 9 9 8 10 11 12 12 14 13 12 11 10 11 11 8 9 9 8 8 8 7 7 7
-1 -1 -1 -1 -1 -1 -1 -1 -1 -1 -1 -1 -1 -1 -0 0 2 2 4 4 6 7 11 10 8 8 6 7 7 7 8 9 9 9 10 11 12 11 12 11 11 10 11 10 10 8 9 9 8 7 7 7 7 7
-1 -1 -1 -1 -1 -1 -1 -1 -1 -1 -1 -1 -1 -1 -1 -0 1 2 3 4 3 6 10 12 10 8 8 8 9 9 9 10 10 11 11 11 11 11 12 13 13 11 10 11 10 7 8 7 8 7 8 8 7 7
-1 -1 -1 -1 -1 -1 -1 -1 -1 -1 -1 -1 -1 -1 -1 0 1 2 6 4 3 6 11 13 10 10 9 9 10 10 9 10 10 11 10 10 11 11 13 13 10 10 9 7 8 6 7 7 8 8 9 8 8 8
-1 -1 -1 -1 -1 -1 -1 -1 -1 -1 -1 -0 -0 -1 -1 0 1 4 6 4 3 5 11 14 14 10 9 9 10 10 10 10 10 11 11 11 11 11 11 14 11 10 9 8 7 7 8 8 10 9 9 8 8 7
-1 -1 -1 -1 -1 -1 -1 -1 -0 -0 -0 -0 -0 -0 -0 0 1 5 3 3 3 7 9 14 14 12 9 11 11 9 10 10 11 10 11 12 11 12 14 12 11 10 10 9 8 7 8 7 9 9 9 9 9 9
-1 -1 -1 -1 -1 -1 -1 -0 -0 -0 -1 -0 -0 -0 1 2 4 4 2 2 6 9 13 13 14 14 10 10 10 10 9 12 11 12 12 11 12 15 13 12 11 10 11 10 9 9 9 10 10 9 9 10 10 9
-1 -1 -1 -0 -0 -1 -1 -1 -0 -0 -0 -0 1 3 6 3 0 3 8 10 10 11 11 11 10 14 10 11 11 11 10 11 14 12 12 13 14 11 11 10 10 10 9 9 10 11 11 11 10 10 9 9 9 9
-1 -1 -0 -0 -0 -0 -0 -0 -0 -0 -0 2 4 5 2 0 4 7 11 12 12 13 12 12 11 13 10 12 12 11 12 12 15 13 14 15 16 13 11 10 10 9 9 9 9 9 9 9 10 9 9 9 9 9
-0 -0 -0 -0 -0 -0 -0 -0 -0 1 2 2 2 2 2 7 9 11 12 12 11 12 12 13 12 11 12 9 12 12 12 13 16 14 16 18 14 11 11 10 10 9 9 9 9 9 9 9 9 9 9 8 9 9
-0 -0 -0 -0 -0 -0 -0 -0 -0 -0 0 1 3 6 8 9 13 13 15 13 12 12 12 11 13 12 11 10 12 13 14 14 13 16 18 15 12 11 10 9 9 9 9 9 9 9 9 9 9 9 9 8 8 9
0 -0 -0 -0 -0 -0 -0 -0 -0 0 2 6 8 11 10 12 12 10 10 9 9 9 10 10 11 11 11 12 12 14 13 14 17 19 18 12 12 10 9 9 10 10 10 10 10 10 10 10 9 9 9 8 9 9
-0 -0 -0 0 -0 -0 -0 -0 -0 0 4 8 8 12 11 8 8 8 7 9 9 8 8 10 10 10 12 13 12 15 17 17 16 16 12 10 10 10 10 10 10 9 10 10 10 10 10 10 10 10 9 8 8 9
0 0 1 0 -0 -0 -0 -0 1 2 4 7 8 9 8 10 9 9 8 9 7 8 8 8 11 12 13 12 15 15 16 17 14 13 10 10 10 10 10 10 10 9 10 10 10 10 10 10 10 9 9 9 9 8
0 2 0 0 0 -0 -0 2 3 6 7 8 9 6 8 9 9 9 7 8 6 8 10 10 13 13 11 14 15 12 14 12 11 10 10 10 10 10 10 11 11 11 11 10 10 10 10 10 9 9 10 9 8 8
2 1 0 0 0 2 3 4 6 7 9 7 9 7 8 8 8 8 7 7 7 7 9 10 10 13 14 15 14 11 12 11 9 9 9 9 10 10 11 10 11 11 10 10 10 10 10 10 10 9 9 8 8 9
1 1 0 0 2 5 7 7 6 9 8 6 6 6 6 7 7 5 6 7 6 7 8 10 12 12 12 11 11 10 11 10 9 10 10 10 10 11 11 10 10 10 10 10 10 10 9 9 8 8 8 8 9 8
0 0 0 0 1 6 8 8 6 8 9 7 6 7 7 7 6 6 7 7 7 9 11 11 10 10 10 9 9 9 9 8 9 10 10 10 10 10 11 10 10 10 10 10 10 10 10 11 9 8 8 8 8 9
1 1 0 2 4 5 7 8 8 7 6 7 6 7 7 6 7 7 7 6 9 10 10 9 9 9 9 9 9 9 9 9 9 8 8 10 11 10 11 11 11 10 11 11 11 11 10 9 9 9 9 8 8 8
2 1 3 3 7 7 7 6 6 5 7 7 7 6 8 9 8 7 6 9 9 8 7 8 8 8 9 9 9 9 9 10 10 9 10 10 12 12 11 11 11 11 10 10 10 11 10 10 9 9 9 9 9 9
2 3 6 7 8 8 9 5 8 7 10 9 8 9 9 9 7 5 9 8 8 6 6 7 7 7 8 8 9 10 10 10 10 10 10 10 10 10 11 11 10 11 11 11 10 11 10 9 10 10 10 9 9 10
3 7 7 8 8 10 8 8 7 8 8 10 10 11 10 9 7 9 10 8 7 7 7 7 7 8 9 9 9 9 9 9 9 10 11 11 11 12 11 11 11 10 10 11 11 10 9 9 10 10 10 10 10 10
8 9 8 10 9 9 10 10 9 10 11 10 11 11 10 8 10 11 10 8 7 7 7 6 7 7 8 8 9 9 9 9 10 11 11 10 11 12 12 11 11 11 10 11 11 10 10 9 10 10 10 10 11 11
10 9 9 10 11 11 10 11 10 10 10 11 10 9 8 10 11 12 9 7 6 6 6 6 7 7 7 7 8 8 8 8 9 10 11 11 10 11 12 12 12 12 10 10 9 10 10 10 10 10 10 11 11 11
13 11 9 8 9 9 9 8 8 9 11 11 10 10 10 12 12 9 6 6 6 5 4 4 4 5 5 6 6 6 7 8 8 8 9 10 9 9 10 11 11 10 11 10 9 9 10 10 10 10 10 10 10 10
10 9 11 10 10 9 10 9 10 10 10 9 9 11 12 11 10 7 6 5 5 4 4 4 4 4 4 5 5 7 8 9 10 10 10 10 10 10 9 9 9 10 10 9 9 9 9 9 10 10 10 10 11 10
9 8 9 11 10 9 9 9 9 8 7 8 9 10 10 8 8 7 7 6 6 5 5 5 5 4 5 5 6 7 8 8 9 11 11 11 12 11 10 10 10 10 10 9 8 8 9 9 9 9 9 10 10 10
10 8 9 10 11 11 9 8 8 8 8 7 7 8 9 8 8 9 9 8 7 6 5 5 5 5 7 7 8 9 7 7 6 8 10 11 10 10 10 10 11 10 9 9 9 9 9 9 9 10 11 11 11 11
8 8 10 10 11 10 9 9 9 9 9 8 9 9 9 9 8 9 9 8 7 6 6 6 6 5 6 7 7 9 9 8 7 7 8 8 10 10 10 10 10 10 9 9 9 9 10 10 11 11 11 12 11 11
9 10 10 11 11 9 9 9 9 10 10 10 10 10 9 9 9 7 8 8 7 7 6 6 6 7 5 5 5 6 6 6 8 8 9 9 9 9 9 10 10 10 10 9 9 9 10 10 11 11 11 11 11 11
11 10 10 11 11 11 10 10 11 11 11 11 11 11 10 9 9 8 8 7 6 6 6 6 5 5 5 6 6 6 6 7 7 8 8 8 9 9 10 10 11 11 9 9 9 10 10 10 11 11 11 11 11 11

GFSWCAN_con_lsi_117.txt.gz
Lid_Strength_Index
-1 -1 -1 -1 -1 -1 -1 -1 -1 -1 -1 -1 -1 -1 -1 -1 0 2 4 5 6 9 8 8 8 9 7 6 8 8 9 8 8 9 9 10 10 10 10 10 12 13 13 14 13 14 15 8 10 12 8 8 8 7
-1 -1 -1 -1 -1 -1 -1 -1 -1 -1 -1 -1 -1 -1 -1 -1 -1 1 4 5 4 7 8 8 8 8 7 5 6 7 7 8 6 8 8 8 10 9 9 12 9 12 10 11 11 10 7 7 7 7 7 7 7 7
-1 -1 -1 -1 -1 -1 -1 -1 -1 -1 -1 -1 -1 -1 -1 -1 -0 1 3 5 5 9 9 9 9 8 6 6 3 8 6 6 6 4 6 7 9 8 11 10 9 9 8 10 11 8 8 7 7 7 7 7 6 6
-1 -1 -1 -1 -1 -1 -1 -1 -1 -1 -1 -1 -1 -1 -1 -1 -1 1 4 4 4 7 10 10 6 9 7 6 6 4 5 6 5 5 7 8 9 8 9 9 9 8 9 10 10 8 8 7 7 6 6 6 6 6
-1 -1 -1 -1 -1 -1 -1 -1 -1 -1 -1 -1 -1 -1 -0 -0 -1 -0 2 3 2 6 11 10 7 7 7 7 8 6 6 7 7 8 9 9 8 9 9 9 10 9 9 11 11 8 8 7 5 5 6 6 6 6
-1 -1 -1 -1 -1 -1 -1 -1 -1 -1 -0 -0 -0 -0 -0 -0 -0 1 5 3 2 4 9 13 9 9 8 8 8 8 7 7 7 8 9 8 8 9 10 12 10 8 8 7 8 7 7 6 5 6 7 6 6 7
-1 -1 -1 -1 -1 -1 -1 -1 -1 -1 -0 -0 -0 -0 -0 -0 1 4 5 3 2 4 9 14 13 10 8 8 9 9 8 8 8 9 9 9 10 10 10 12 10 9 8 8 7 7 8 7 7 7 7 7 7 7
-1 -1 -1 -1 -1 -1 -1 -0 -0 -0 -0 -0 -0 -0 -0 0 2 3 1 2 2 7 8 14 14 12 9 11 11 8 10 9 9 9 9 10 10 10 13 11 9 9 9 9 8 7 7 7 6 6 7 7 8 8
-1 -1 -1 -1 -1 -1 -1 -1 -0 -0 -0 -0 -0 -0 1 2 4 3 0 2 4 7 12 13 13 14 9 10 10 10 9 12 9 11 11 10 11 13 12 10 10 9 9 9 8 8 8 8 7 7 7 8 9 9
-1 -1 -1 -1 -1 -1 -1 -0 -0 -0 -0 -0 1 4 6 3 1 1 4 8 8 9 9 11 8 12 9 11 12 11 10 11 13 11 9 12 12 10 9 9 9 9 9 8 10 10 9 9 9 9 8 8 8 9
-1 -1 -1 -1 -0 -0 -0 -0 -0 -0 -0 2 6 6 2 0 2 4 10 11 12 12 11 9 9 11 7 11 12 10 12 12 14 12 12 13 13 11 9 9 9 8 8 8 8 8 8 9 9 9 9 8 8 8
-0 -0 -0 -0 -0 -0 -0 -0 -0 1 2 3 2 1 2 6 8 10 10 10 11 11 10 9 9 9 9 8 11 12 12 12 15 11 13 15 12 10 9 10 9 8 8 8 8 9 8 8 8 8 8 8 8 7
-0 -0 -0 -0 -0 -0 -0 -0 -0 -0 0 2 4 6 8 8 11 12 13 12 12 9 9 7 10 10 9 8 10 11 13 14 11 14 15 14 10 9 9 9 9 8 8 9 9 8 8 8 8 8 8 8 8 8
0 0 -0 -0 -0 -0 -0 -0 -0 0 2 7 8 11 10 11 10 10 10 10 7 7 8 7 9 10 9 11 11 13 11 12 15 16 15 11 10 9 9 8 9 9 8 8 8 8 8 8 8 8 8 8 8 8
0 0 -0 -0 -0 -0 -0 -0 -0 1 4 8 8 11 10 7 7 7 6 8 7 6 7 8 9 9 9 12 11 13 15 15 14 14 11 9 8 8 9 9 8 9 9 9 9 9 9 9 9 9 8 8 8 8
0 0 1 -0 -0 -0 -0 -0 1 2 4 7 8 9 7 8 8 8 7 7 6 7 6 8 10 12 12 11 13 14 14 15 12 10 9 7 8 8 8 8 8 8 8 9 9 9 9 9 9 8 8 8 8 7
0 1 0 0 0 -0 -0 2 3 6 7 8 8 6 6 7 8 8 7 7 5 8 10 10 12 12 10 12 13 11 12 10 9 9 8 7 8 8 8 8 9 9 9 9 9 9 9 8 8 8 9 8 8 8
1 0 0 0 0 1 3 4 6 7 9 7 8 7 6 5 6 6 5 5 7 8 8 10 8 11 12 13 12 10 9 8 7 8 7 7 7 8 9 9 9 9 9 9 9 9 9 9 9 9 8 8 8 8
1 1 0 0 1 5 7 7 7 8 7 6 6 5 5 6 5 5 5 5 6 5 6 8 11 10 10 9 9 8 7 8 8 8 7 7 8 9 9 9 9 9 9 9 9 9 9 8 8 8 8 8 8 7
0 0 0 0 1 5 7 7 6 7 8 6 5 6 6 6 5 5 6 7 8 8 10 11 9 7 7 7 7 7 7 7 7 8 8 8 8 9 9 9 9 9 9 9 9 9 9 9 8 8 8 7 8 8
1 1 1 2 4 5 6 8 8 6 6 7 6 6 7 5 7 7 7 7 10 9 9 7 6 7 7 7 7 7 7 7 7 7 7 8 8 9 9 8 8 9 9 9 10 9 9 9 8 8 8 7 7 7
2 1 3 3 7 7 7 5 6 5 7 7 7 6 8 8 8 7 7 9 9 7 6 5 5 6 7 7 7 8 8 8 8 9 9 8 10 9 10 9 9 9 9 9 9 10 9 8 8 8 8 7 7 7
2 4 6 7 7 7 9 5 8 7 9 9 7 9 9 8 7 5 9 7 7 6 6 6 5 5 6 6 8 9 8 8 9 9 9 9 8 9 9 9 9 9 9 9 8 9 9 9 9 8 8 8 8 8
3 7 7 8 8 10 8 8 7 8 8 9 10 11 10 8 7 8 9 8 7 6 6 6 6 6 6 6 7 8 8 8 8 9 9 9 10 9 9 9 9 8 9 9 9 9 10 10 9 8 8 9 9 9
8 8 8 10 8 10 10 10 9 9 11 10 11 11 10 8 11 10 10 8 7 6 6 6 6 6 7 7 6 7 8 8 9 9 9 9 9 10 10 10 10 9 9 9 10 10 10 10 9 8 9 9 9 9
10 8 9 9 9 9 9 11 10 10 10 11 10 8 8 10 11 11 9 7 6 5 6 6 6 7 7 7 7 7 8 8 8 9 9 9 9 10 11 11 11 11 9 8 9 9 10 9 9 9 9 9 9 9
11 10 8 6 7 7 8 8 7 8 10 11 10 10 10 12 12 9 5 4 5 4 3 3 4 5 6 6 6 6 7 7 7 8 8 8 8 8 9 10 10 10 9 9 8 9 10 9 8 8 9 9 9 9
8 8 10 9 8 7 9 9 9 10 9 8 8 11 12 11 10 6 5 3 3 3 3 3 2 3 4 5 5 7 8 8 9 9 9 9 8 8 8 8 8 10 9 8 8 8 8 8 8 8 9 9 9 9
9 7 8 10 8 8 8 9 9 7 6 7 9 9 8 6 5 5 4 4 4 4 4 4 3 3 4 4 4 5 7 8 9 10 10 11 11 10 9 9 10 9 9 9 9 8 8 8 8 8 8 9 9 9
8 6 8 8 10 10 8 6 6 5 5 5 5 6 7 6 5 6 6 6 6 5 4 3 3 4 4 5 6 6 6 6 6 7 9 9 8 8 9 9 9 9 9 9 9 8 7 8 8 8 9 10 10 10
6 7 8 8 9 7 6 6 6 6 7 6 6 7 7 7 6 6 7 6 5 4 4 4 4 3 4 4 5 7 7 5 5 5 5 6 7 8 8 9 9 9 9 9 9 9 8 9 9 10 10 10 10 10
8 8 9 10 9 8 7 7 7 7 7 7 7 8 7 8 8 7 7 7 6 5 4 4 4 4 3 3 3 3 5 5 5 5 6 6 7 7 8 8 9 9 9 9 9 9 8 9 9 10 10 11 10 10
9 8 8 9 10 10 8 8 8 9 9 8 8 8 8 8 8 6 6 6 5 5 5 5 4 3 3 3 3 3 4 4 5 6 6 6 7 7 8 8 9 9 10 10 9 9 9 10 10 10 10 10 11 11

GFSWCAN_con_lsi_120.txt.gz
Lid_Strength_Index
-1 -1 -1 -1 -1 -1 -1 -1 -1 -1 -1 -1 -1 -1 -1 -1 -1 0 2 3 5 8 7 6 6 8 9 8 9 9 9 9 10 11 11 11 12 11 11 11 13 13 15 16 15 16 17 10 12 13 10 10 9 10
-1 -1 -1 -1 -1 -1 -1 -1 -1 -1 -1 -1 -1 -1 -1 -1 -1 -0 3 2 2 5 7 5 5 4 8 9 8 8 8 9 8 9 9 9 11 10 11 13 10 13 10 12 12 12 9 9 10 9 8 9 9 9
-1 -1 -1 -1 -1 -1 -1 -1 -1 -1 -1 -1 -1 -1 -1 -1 -1 -0 2 2 4 8 7 8 8 5 4 7 6 10 8 6 7 6 8 8 11 9 12 11 11 10 8 10 11 9 9 9 9 9 8 8 8 8
-1 -1 -1 -1 -1 -1 -1 -1 -1 -1 -1 -1 -1 -1 -1 -1 -1 -0 2 2 4 6 9 9 5 6 4 6 7 8 8 6 5 6 8 9 11 9 11 10 10 9 9 10 10 10 9 8 9 9 8 8 8 7
-1 -1 -1 -1 -1 -1 -1 -1 -1 -1 -1 -1 -1 -1 -1 -0 -0 -0 1 2 2 5 9 9 6 6 6 6 8 8 8 8 8 8 9 10 9 10 10 10 11 10 10 11 11 9 9 9 8 8 8 8 7 8
-1 -1 -1 -1 -1 -1 -1 -1 -1 -1 -1 -0 -0 -0 -0 -0 -0 1 5 1 2 3 8 12 8 7 7 8 9 9 9 8 8 8 9 8 8 9 13 14 10 9 8 8 9 8 8 8 7 7 8 8 7 7
-1 -1 -1 -1 -1 -1 -1 -1 -0 -0 -1 -0 -0 -0 -0 -0 1 4 5 2 1 3 8 12 11 8 6 8 8 9 9 9 9 10 10 10 10 9 12 14 11 10 8 8 8 9 11 9 10 8 8 7 6 7
-1 -1 -1 -1 -1 -1 -1 -1 -0 -0 -0 -0 -0 -0 -0 -0 1 4 3 1 0 5 7 12 12 11 7 11 12 9 11 10 10 11 11 12 12 12 15 12 10 10 9 9 8 8 10 10 9 9 8 8 9 9
-1 -1 -1 -1 -1 -1 -1 -1 -0 -0 -0 -0 -0 -0 1 2 4 4 1 1 3 6 12 12 13 14 8 11 10 10 9 12 10 12 12 12 13 15 13 12 11 10 10 10 10 10 10 10 10 10 9 9 10 10
-1 -1 -1 -1 -1 -1 -1 -1 -0 -0 -0 -0 2 5 6 3 -0 1 4 8 7 8 9 12 8 12 9 10 12 12 11 13 14 13 11 14 14 11 11 10 10 10 9 9 11 11 11 11 11 10 10 9 9 9
-1 -1 -1 -1 -1 -0 -0 -0 -0 -0 -0 2 6 8 2 0 3 5 10 11 11 12 11 10 8 11 7 11 12 10 13 12 15 13 14 15 15 12 10 10 9 9 9 9 8 9 9 10 10 10 10 10 10 10
-0 -1 -0 -0 -0 -0 -0 -0 -0 1 2 3 3 1 3 5 8 10 10 11 11 11 10 9 9 8 8 8 12 12 13 13 16 11 14 17 12 10 10 10 9 8 8 9 9 9 9 10 10 10 10 10 10 10
0 -0 -0 -0 -0 -0 -0 -0 -0 -0 0 2 5 7 9 9 12 13 14 12 12 9 9 8 10 9 8 8 11 12 14 15 11 15 16 15 11 10 10 9 9 8 8 8 9 9 9 10 10 10 10 10 10 10
-0 -0 -0 -0 -0 -0 -0 -0 -0 0 3 7 8 11 11 12 11 10 10 10 8 7 8 7 9 9 9 10 10 13 12 13 16 17 17 13 11 10 10 9 10 10 10 10 10 10 10 10 10 10 10 10 10 10
0 0 0 0 -0 -0 -0 -0 -0 1 5 8 8 12 11 8 7 7 6 7 6 7 7 8 8 8 10 11 11 13 14 16 16 16 12 10 10 10 10 10 10 10 10 10 10 10 10 10 11 11 10 10 9 9
0 0 1 0 -0 -0 -0 0 1 2 5 7 8 10 8 8 9 8 7 7 6 6 6 7 10 11 12 12 13 14 15 16 14 12 10 9 10 10 10 10 10 10 10 11 11 11 11 11 11 10 10 10 10 10
0 2 0 0 -0 -0 -0 2 5 8 8 8 9 6 7 7 8 7 6 7 5 7 10 10 12 13 10 13 14 12 13 11 10 10 9 9 9 10 9 10 10 10 11 11 11 11 11 10 10 10 11 11 10 9
2 1 0 0 0 1 3 4 7 8 9 8 9 7 6 6 7 7 6 5 6 7 10 10 8 12 13 14 13 10 9 8 8 9 9 9 9 9 9 10 10 11 11 11 11 11 11 11 11 11 11 10 10 10
1 0 0 0 1 5 7 8 7 9 8 7 6 5 6 6 5 5 5 5 5 5 8 10 11 12 11 9 9 8 8 8 9 9 9 9 9 10 10 10 11 11 11 11 11 11 11 11 11 10 10 10 11 11
0 0 0 0 1 5 7 8 7 7 8 7 6 6 6 6 5 5 6 5 6 8 10 11 10 9 8 8 8 7 7 7 8 9 10 10 10 10 11 11 11 11 11 11 11 10 10 10 10 10 10 10 10 11
1 4 1 3 4 5 6 8 8 7 6 7 6 6 7 6 7 7 7 5 9 10 10 8 7 7 7 7 7 8 8 8 9 8 9 10 10 10 11 11 10 11 11 11 11 11 10 11 10 9 9 10 10 10
3 2 5 4 7 7 7 5 6 5 6 7 7 6 8 9 8 7 6 8 9 8 8 7 6 5 7 7 7 8 8 8 8 9 8 8 11 11 11 10 11 12 12 12 11 11 11 10 9 9 10 10 9 10
3 4 6 7 8 7 9 5 8 7 10 9 7 9 9 9 7 5 9 8 7 5 6 6 5 5 6 6 7 8 8 9 9 9 10 10 10 10 10 11 10 11 11 12 11 10 10 9 9 10 10 10 11 10
3 7 8 8 8 10 8 8 7 8 8 9 10 11 10 9 7 9 10 9 6 5 5 5 5 7 7 7 8 8 8 8 9 9 9 10 11 11 10 11 10 10 10 11 11 11 11 10 9 10 10 11 11 11
8 8 8 10 8 10 10 10 10 10 11 9 10 11 10 8 10 11 11 10 7 6 6 5 5 6 7 7 7 7 7 8 9 10 10 10 10 11 11 11 11 11 10 11 11 11 11 11 11 11 11 11 11 11
11 8 9 9 10 10 10 11 11 10 10 11 10 9 8 10 12 12 10 8 7 6 6 6 6 6 6 7 7 8 8 7 8 10 10 9 10 11 12 12 13 12 10 10 11 11 11 11 11 11 11 11 9 10
12 10 8 6 8 8 9 8 8 9 11 11 10 10 11 13 13 9 6 5 6 5 4 4 5 6 6 6 6 6 6 7 8 9 9 9 9 9 10 11 12 11 10 10 10 11 11 11 11 11 11 10 10 10
8 8 11 9 9 8 10 9 10 10 10 8 9 11 12 11 11 7 6 4 4 4 3 4 4 4 5 5 5 6 7 8 8 9 9 10 10 9 9 9 10 9 9 9 10 10 10 10 11 11 11 10 10 10
9 8 8 10 8 8 9 9 9 8 7 8 10 10 9 7 5 5 5 5 5 5 5 6 5 4 5 5 5 6 8 8 9 11 11 12 12 12 10 10 10 9 9 9 9 9 10 10 10 10 10 10 10 10
9 7 9 9 10 10 8 7 8 6 6 6 7 7 8 8 7 6 6 6 6 6 5 5 5 5 6 6 7 8 7 7 7 8 10 10 10 9 10 10 10 10 9 10 10 9 8 9 9 10 10 10 11 11
7 7 8 9 10 8 7 7 6 7 7 7 7 8 8 8 7 6 6 6 6 5 6 6 5 6 6 5 6 7 9 7 7 7 7 7 8 9 9 9 9 9 10 10 10 10 10 11 10 10 11 12 12 12
8 9 9 11 10 9 8 8 8 8 8 9 9 8 9 9 10 7 6 7 7 7 5 5 6 6 5 5 5 4 5 6 6 7 7 8 8 8 8 9 9 9 10 10 10 10 11 10 10 11 12 12 12 13
8 8 9 9 10 10 9 9 10 10 10 10 9 9 9 9 9 7 7 7 6 6 6 5 4 4 4 4 4 4 5 5 6 6 6 7 7 8 8 9 9 9 10 10 10 11 11 10 11 11 11 12 12 12

GFSWCAN_con_lsi_123.txt.gz
Lid_Strength_Index
-2 -1 -1 -1 -1 -1 -1 -1 -1 -1 -1 -1 -1 -1 -1 -1 -1 0 2 1 4 7 8 7 6 8 10 10 12 10 10 10 11 12 13 13 14 13 14 14 15 16 17 18 17 18 18 11 11 13 12 12 11 11
-1 -1 -1 -1 -1 -1 -1 -1 -1 -1 -1 -1 -1 -1 -1 -1 -1 -0 3 1 1 6 6 5 5 4 6 9 9 10 9 11 10 11 12 12 13 13 13 16 13 15 13 15 14 14 10 10 11 10 10 11 11 11
-1 -1 -1 -1 -1 -1 -1 -1 -1 -1 -1 -1 -1 -1 -1 -1 -1 -0 3 1 3 5 6 7 7 4 4 7 7 11 11 8 9 8 9 10 13 12 15 14 13 12 11 12 12 11 10 10 10 9 9 10 10 9
-1 -1 -1 -1 -1 -1 -1 -1 -1 -1 -1 -1 -1 -1 -1 -1 -1 -0 2 1 2 5 9 8 4 5 3 6 7 8 10 9 8 8 9 11 12 10 13 12 12 11 10 12 12 11 10 9 9 9 9 9 9 9
-1 -1 -1 -1 -1 -1 -1 -1 -1 -1 -1 -1 -1 -1 -1 -1 -1 -0 1 1 1 5 9 8 6 5 4 4 6 7 9 9 9 10 11 12 11 12 13 12 14 12 12 12 12 10 9 9 7 8 8 9 9 9
-1 -1 -1 -1 -1 -1 -1 -1 -1 -1 -1 -1 -1 -1 -1 -0 -0 2 5 1 0 1 7 10 7 6 5 4 5 7 8 9 9 11 12 12 11 12 15 16 12 11 10 10 10 9 8 8 7 7 8 8 8 9
-1 -1 -1 -1 -1 -1 -1 -1 -1 -1 -1 -1 -1 -0 -0 -0 1 4 5 2 0 1 6 10 10 8 6 6 6 8 9 9 10 12 13 12 12 11 15 15 12 10 9 10 9 9 11 9 9 8 8 8 7 8
-1 -1 -1 -1 -1 -1 -1 -1 -1 -1 -0 -1 -0 -0 -0 -0 0 3 2 1 0 4 5 11 11 11 7 11 11 9 10 10 10 12 13 14 13 14 16 13 11 10 10 10 9 9 10 10 10 9 9 9 9 9
-1 -1 -1 -1 -1 -1 -1 -1 -0 -0 -0 -0 -0 -0 1 2 5 4 -0 1 2 4 10 11 12 13 7 10 10 10 9 13 10 13 14 14 14 16 15 13 12 12 11 9 10 10 10 10 10 11 10 10 10 10
-1 -1 -1 -1 -1 -1 -1 -1 -1 -0 -0 -0 2 5 6 4 -0 1 4 8 8 8 9 10 8 12 9 10 12 12 10 13 15 14 13 15 14 12 13 12 11 11 10 11 12 12 12 12 11 11 11 10 10 10
-1 -1 -1 -1 -1 -1 -1 -1 -0 -0 -0 3 5 7 4 0 3 6 10 10 11 12 11 9 9 11 8 11 12 10 12 12 15 14 15 18 15 12 12 12 12 12 11 10 10 9 10 10 10 11 12 11 10 10
-1 -1 -1 -1 -1 -1 -0 -0 -0 1 3 3 3 3 5 6 8 10 11 10 11 12 10 9 9 9 8 7 11 11 12 12 16 13 16 18 13 12 11 11 11 11 10 10 10 10 10 10 10 10 12 11 11 11
-0 -0 -0 -1 -1 -0 -0 -0 -0 -0 0 2 5 7 10 9 12 13 14 12 12 9 9 8 10 8 8 7 10 12 13 14 11 16 17 16 13 11 10 10 10 10 9 9 9 9 11 11 10 11 11 11 11 11
0 0 0 -0 -0 -0 -0 -0 -0 0 3 7 9 12 11 13 14 14 12 10 8 8 8 8 9 9 9 10 11 13 12 12 15 18 18 15 13 12 11 9 10 10 10 10 10 10 10 10 11 11 11 11 11 11
0 -0 -0 0 -0 -0 -0 -0 -0 1 5 8 9 13 12 9 10 8 9 9 8 6 7 8 9 8 11 12 12 12 13 15 15 16 15 13 11 10 10 12 12 12 12 12 12 12 12 12 12 12 11 11 11 11
0 0 1 0 0 0 -0 0 1 2 5 7 8 10 9 9 13 8 8 8 7 7 6 7 10 11 12 11 13 13 16 16 14 13 11 11 11 11 11 11 11 12 12 12 12 12 12 12 12 12 11 11 11 10
0 3 0 0 0 0 -0 4 5 7 7 8 10 8 9 9 10 9 8 7 6 8 10 10 12 13 10 13 13 13 15 13 11 11 11 10 10 11 11 11 12 11 12 12 12 12 12 12 12 12 12 12 11 10
2 1 0 0 0 1 3 4 7 7 9 8 12 9 8 8 8 7 6 7 7 7 8 10 9 12 13 14 14 12 11 9 9 11 10 10 10 11 11 12 11 11 12 12 12 12 12 12 12 12 12 12 11 11
1 1 0 -0 1 4 7 7 8 9 9 8 8 7 7 8 7 6 6 6 6 6 8 9 11 12 12 11 11 10 9 9 9 9 9 10 10 11 11 11 12 12 12 13 12 12 12 12 12 11 11 11 12 12
1 0 0 0 1 6 8 8 7 8 9 9 8 8 8 7 6 7 7 6 7 7 10 11 10 9 8 8 9 9 8 8 9 10 11 11 11 12 12 12 12 12 12 12 12 11 12 12 11 11 11 11 12 12
3 3 0 2 5 6 8 8 8 10 8 9 7 8 8 7 8 8 7 5 8 9 9 8 7 7 5 6 7 8 8 8 9 9 9 11 11 11 12 12 12 11 12 12 12 12 11 12 11 11 11 11 11 11
4 3 4 4 7 7 8 7 9 6 7 7 7 8 9 11 10 9 7 8 8 8 7 7 7 7 6 6 7 8 8 8 8 8 8 8 11 11 12 11 11 12 12 12 11 12 12 11 11 11 11 11 11 11
4 5 7 8 8 8 9 6 9 7 12 9 8 9 9 12 9 6 9 7 7 5 5 6 6 5 5 5 6 8 8 8 9 9 9 10 10 10 10 11 11 11 12 13 12 11 11 10 10 11 11 11 11 11
3 7 8 9 10 12 8 9 7 9 8 12 13 14 13 12 8 9 11 10 7 5 6 6 6 6 5 6 8 8 8 8 9 9 10 10 11 11 11 11 11 11 10 11 11 11 10 10 10 11 11 11 11 12
10 9 11 14 11 13 11 12 12 10 13 11 12 11 10 8 10 12 11 9 7 7 6 6 7 7 7 6 6 7 7 8 9 10 10 10 11 11 11 11 11 11 10 11 12 11 11 10 11 11 11 11 12 12
13 10 11 15 12 11 10 11 11 11 10 11 10 9 8 10 12 12 10 8 8 7 6 6 7 7 7 7 8 8 8 7 9 10 10 10 10 10 11 11 12 12 11 10 11 11 11 11 11 12 12 11 10 11
12 11 10 8 9 9 10 10 9 11 11 13 13 10 10 13 13 10 8 7 7 6 5 5 5 6 7 6 7 7 7 8 8 8 9 9 9 9 9 10 11 11 11 10 11 11 11 11 12 12 12 11 11 11
9 9 10 9 10 10 10 10 10 10 10 9 10 12 12 11 11 7 7 5 6 5 5 5 4 4 6 6 6 6 7 8 9 9 9 9 9 9 9 10 10 10 10 10 10 10 10 11 11 11 11 11 11 11
9 8 8 10 10 10 10 10 10 9 8 9 10 10 10 7 6 6 6 6 6 6 6 6 6 5 5 6 7 7 8 8 10 11 11 12 11 11 10 10 10 10 10 10 9 9 10 10 10 11 11 11 11 11
9 8 10 10 12 12 10 9 9 8 8 8 8 8 8 8 8 9 7 7 7 7 6 6 6 6 6 6 7 8 7 7 6 8 9 10 10 10 10 10 10 10 9 10 10 10 8 10 9 11 12 12 11 12
9 9 9 9 12 11 10 9 9 9 9 9 9 9 10 9 8 7 7 7 7 7 6 6 6 6 6 6 7 8 9 7 7 6 7 7 9 9 9 9 9 9 9 10 10 10 11 11 11 12 12 12 12 12
9 9 9 12 13 12 10 10 10 10 10 10 10 10 10 10 10 8 8 8 8 8 6 6 6 5 5 5 5 5 5 7 7 7 7 8 8 8 9 9 9 9 10 10 10 10 11 11 12 12 12 12 12 12
9 9 9 12 14 13 11 11 12 12 13 12 11 10 10 10 10 8 8 8 7 7 7 6 5 5 5 5 5 5 5 6 6 6 7 7 7 8 8 9 9 9 10 10 11 11 11 12 12 12 12 12 12 13